UNISAT-6

Last updated on Tue Jan 14 2025 00:03:00 GMT+0000 (Coordinated Universal Time)

1 40012U 14033C 25013.39364557 .00004594 00000+0 55573-3 0 9990 2 40012 97.7201 174.0419 0049230 339.3511 20.5713 14.83307162568961
UTC large
Height (km)
Speed (km/s)
/
Latitude / Longitude
Inclination (degrees)
Orbital Period (minutes)
Azimuth
Elevation
Range (km)
Doppler Factor

Next 0 passes for location: London (51.5072 / 0.1276)

Sorry there are no passes over London.